Location: Waco, TX
(31.5480°N, 97.1670°W)
Time: 12:24:49
(UTC-05:00)

ISS - All Passes

Search period start: 18 June 2018 00:00
Search period end: 28 June 2018 00:00
Orbit: 402 x 406 km, 51.6° (Epoch: 19 June)

Date Brightness Start Highest point End Pass type
(mag) Time Alt. Az. Time Alt. Az. Time Alt. Az.
18 Jun - 09:51:33 10° SSW 09:54:36 37° SE 09:57:40 10° ENE daylight
18 Jun - 11:28:59 10° WNW 11:31:10 17° NW 11:33:23 10° N daylight
18 Jun - 17:59:26 10° NNW 18:02:37 48° NE 18:05:47 10° ESE daylight
18 Jun - 19:38:20 10° WSW 19:38:43 10° SW 19:39:06 10° SW daylight
19 Jun - 09:00:15 10° S 09:02:27 17° SE 09:04:40 10° E daylight
19 Jun - 10:35:47 10° WSW 10:38:44 30° NW 10:41:41 10° NNE daylight
19 Jun - 17:07:31 10° NNW 17:10:15 24° NE 17:12:58 10° E daylight
19 Jun - 18:44:01 10° WNW 18:46:37 22° SW 18:49:14 10° S daylight
20 Jun - 09:43:08 10° SW 09:46:23 66° NW 09:49:39 10° NE daylight
20 Jun - 16:16:01 10° N 16:17:46 14° NNE 16:19:29 10° ENE daylight
20 Jun - 17:51:16 10° NW 17:54:27 51° SW 17:57:37 10° SSE daylight
21 Jun - 08:50:56 10° SSW 08:54:07 51° SE 08:57:19 10° NE daylight
21 Jun - 10:29:02 10° WNW 10:30:48 14° NNW 10:32:35 10° N daylight
21 Jun - 16:58:55 10° NW 17:02:10 65° NE 17:05:24 10° SE daylight
22 Jun - 07:59:18 10° S 08:01:55 22° SE 08:04:33 10° ENE daylight
22 Jun - 09:35:34 10° W 09:38:18 24° NW 09:41:02 10° NNE daylight
22 Jun - 16:06:52 10° NNW 16:09:47 29° NE 16:12:42 10° ESE daylight
22 Jun - 17:43:51 10° W 17:46:04 17° SW 17:48:17 10° S daylight
23 Jun - 07:09:30 10° SE 07:09:47 10° SE 07:10:03 10° ESE daylight
23 Jun - 08:42:42 10° WSW 08:45:52 49° NW 08:49:04 10° NE daylight
23 Jun - 15:15:08 10° N 15:17:18 16° NE 15:19:28 10° ENE daylight
23 Jun - 16:50:49 10° WNW 16:53:53 38° SW 16:56:55 10° SSE daylight
24 Jun - 07:50:17 10° SW 07:53:32 70° SE 07:56:48 10° NE daylight
24 Jun - 09:29:10 10° NW 09:30:20 11° NNW 09:31:30 10° N daylight
24 Jun - 15:58:19 10° NW 16:01:36 87° NE 16:04:51 10° SE daylight
25 Jun - 06:58:24 10° SSW 07:01:16 29° SE 07:04:10 10° ENE daylight
25 Jun - 08:35:16 10° W 08:37:45 20° NW 08:40:14 10° NNE daylight
25 Jun - 15:06:07 10° NNW 15:09:13 37° NE 15:12:17 10° ESE daylight
25 Jun - 16:43:47 10° W 16:45:23 13° SW 16:47:00 10° SSW daylight
26 Jun - 06:07:25 10° SSE 06:09:04 13° SE 06:10:44 10° E daylight
26 Jun - 07:42:11 10° WSW 07:45:15 37° NW 07:48:20 10° NNE daylight
26 Jun - 14:14:14 10° NNW 14:16:43 20° NE 14:19:12 10° E daylight
26 Jun - 15:50:19 10° WNW 15:53:11 28° SW 15:56:02 10° S daylight
27 Jun - 06:49:35 10° SW 06:52:51 86° NW 06:56:08 10° NE daylight
27 Jun - 13:22:56 10° N 13:24:07 11° NNE 13:25:18 10° NE daylight
27 Jun - 14:57:38 10° NW 15:00:53 69° SW 15:04:08 10° SE daylight
